sat.trackr.live / text

‹ back to catalog

STARLINK-31661

NORAD 59735 · 2024-090F

PAYLOAD ACTIVE UNKNOWN

§ Identity

Operator
Country
US
Launch date
2024-05-13
Launch site
AFETR
Launch vehicle
Mass (kg)
RCS (m²)

Purposes: comms

External: N2YO · Heavens-Above · Gunter

§ Orbital elements

Epoch: 2026-09-21T09:42:44.894592Z

Period
94.27 min
Inclination
43.0038°
Eccentricity
0.0001019
Mean motion
15.27580070 rev/d
Perigee alt
482.3 km
Apogee alt
483.7 km
Semi-major
6,861.2 km
B*
3.8900e-5
RAAN
151.1559°
Arg perigee
272.7932°
Mean anomaly
87.2803°
Rev number
13,345

§ Raw data

STARLINK-316611 59735U 24090F   26264.40468628  .00000809  00000+0  38900-4 0  99922 59735  43.0038 151.1559 0001019 272.7932  87.2803 15.27580070133458

JSON: /api/v1/satellites/59735 · /tle

For live sub-satellite position, see the globe view (requires WebGL).

§ Visibility from observer

Set your observer location to see the next 7 days of passes ≥ 10°. The values pass through the URL so the page stays shareable.

No JS? Fill the form by hand. The geolocation button needs JavaScript.